Weather History for KTWM - September, 2013

Change the Weather History Date:

Monday, September 9, 2013

  Actual Average Record
Temperature  
Mean Temperature 58 °F -  
Max Temperature 62 °F 68 °F 87 °F (1961)
Min Temperature 55 °F 50 °F 35 °F (2010)
Degree Days  
Heating Degree Days 6    
Growing Degree Days 8 (Base 50)    
Moisture  
Dew Point 55 °F    
Average Humidity 83    
Maximum Humidity 88    
Minimum Humidity 82    
Precipitation  
Precipitation 0.24 in - - ()
Sea Level Pressure  
Sea Level Pressure 29.77 in    
Wind  
Wind Speed 3 mph (ENE)    
Max Wind Speed 14 mph    
Max Gust Speed -    
Visibility 3 miles    
Events Rain , Thunderstorm    
Averages and records for this station are not official NWS values.
T = Trace of Precipitation, MM = Missing Value Source: NWS Daily Summary

Daily Weather History Graph

Daily Weather History Graph

Search for Another Location

Airport or City:

Trip Planner

Search our weather history database for the weather conditions in past years. The results will help you decide how hot, cold, wet, or windy it might be!

Date:

Astronomy

Sep. 09, 2013 Rise Set
Actual Time 6:37 AM CDT 7:30 PM CDT
Civil Twilight 6:06 AM CDT 8:01 PM CDT
Nautical Twilight 5:29 AM CDT 8:38 PM CDT
Astronomical Twilight 4:50 AM CDT 9:16 PM CDT
Moon 11:19 AM CDT (9/9) 9:25 PM CDT (9/9)
Length of Visible Light 13h 55m
Length of Day
12h 53m
Waxing Crescent, 19% of the Moon is Illuminated
Sep 9
Waxing Crescent
Sep 12
First Quarter
Sep 19
Full
Sep 26
Last Quarter
Oct 4
New

Hourly Weather History & Observations

Time (CDT) Temp. Dew Point Humidity Pressure Visibility Wind Dir Wind Speed Gust Speed Precip Events Conditions
12:14 AM 57.2 °F 51.8 °F 82% 29.92 in 10.0 mi NE 3.5 mph - N/A   Overcast
12:33 AM 57.2 °F 51.8 °F 82% 29.91 in 10.0 mi Calm Calm - N/A   Overcast
12:53 AM 57.2 °F 51.8 °F 82% 29.91 in 10.0 mi NE 3.5 mph - N/A   Overcast
1:14 AM 57.2 °F 51.8 °F 82% 29.90 in 10.0 mi NE 3.5 mph - N/A   Overcast
1:33 AM 57.2 °F 53.6 °F 88% 29.90 in 10.0 mi Calm Calm - N/A   Overcast
1:53 AM 57.2 °F 53.6 °F 88% 29.90 in 10.0 mi Calm Calm - N/A   Overcast
2:14 AM 57.2 °F 53.6 °F 88% 29.89 in 10.0 mi East 3.5 mph - N/A   Overcast
2:33 AM 57.2 °F 53.6 °F 88% 29.89 in 10.0 mi ENE 3.5 mph - N/A   Overcast
2:53 AM 57.2 °F 53.6 °F 88% 29.89 in 10.0 mi ENE 3.5 mph - N/A   Overcast
3:14 AM 57.2 °F 51.8 °F 82% 29.89 in 10.0 mi Calm Calm - N/A   Overcast
3:33 AM 57.2 °F 51.8 °F 82% 29.87 in 10.0 mi ENE 3.5 mph - N/A   Overcast
3:53 AM 57.2 °F 51.8 °F 82% 29.87 in 7.0 mi ENE 4.6 mph - N/A   Overcast
4:14 AM 57.2 °F 51.8 °F 82% 29.86 in 3.0 mi ENE 3.5 mph - N/A   Drizzle
4:33 AM 57.2 °F 51.8 °F 82% 29.85 in 3.0 mi ENE 3.5 mph - N/A   Light Drizzle
4:53 AM 57.2 °F 51.8 °F 82% 29.85 in 2.5 mi East 3.5 mph - N/A   Light Drizzle
5:13 AM 57.2 °F 51.8 °F 82% 29.85 in 2.5 mi ENE 3.5 mph - N/A   Haze
5:33 AM 57.2 °F 51.8 °F 82% 29.85 in 3.0 mi Calm Calm - N/A   Haze
5:53 AM 55.4 °F 51.8 °F 88% 29.84 in 4.0 mi NE 3.5 mph - N/A   Haze
6:13 AM 57.2 °F 51.8 °F 82% 29.83 in 5.0 mi ENE 5.8 mph - N/A   Haze
6:34 AM 57.2 °F 51.8 °F 82% 29.85 in 4.0 mi Calm Calm - N/A   Haze
6:53 AM 57.2 °F 51.8 °F 82% 29.84 in 3.0 mi ENE 4.6 mph - N/A   Haze
7:13 AM 57.2 °F 51.8 °F 82% 29.85 in 1.5 mi Calm Calm - N/A   Haze
7:34 AM 57.2 °F 51.8 °F 82% 29.86 in 1.0 mi Calm Calm - N/A   Haze
7:53 AM 57.2 °F 51.8 °F 82% 29.85 in 1.2 mi NE 3.5 mph - N/A   Light Drizzle
8:13 AM 57.2 °F 51.8 °F 82% 29.85 in 1.2 mi Calm Calm - N/A   Haze
8:34 AM 57.2 °F 53.6 °F 88% 29.80 in 1.2 mi NE 5.8 mph - 0.03 in Rain Heavy Rain
8:53 AM 57.2 °F 53.6 °F 88% 29.83 in 3.0 mi Calm Calm - 0.07 in Rain Light Rain
9:13 AM 57.2 °F 53.6 °F 88% 29.86 in 5.0 mi Calm Calm - N/A Rain , Thunderstorm Light Thunderstorms and Rain
9:34 AM 57.2 °F 53.6 °F 88% 29.85 in 3.0 mi Calm Calm - 0.03 in Rain Rain
9:53 AM 57.2 °F 53.6 °F 88% 29.79 in 3.0 mi East 6.9 mph - 0.09 in Rain Rain
10:13 AM 57.2 °F 53.6 °F 88% 29.73 in 0.5 mi East 13.8 mph - 0.05 in Rain Light Rain
10:34 AM 57.2 °F 53.6 °F 88% 29.72 in 0.2 mi NNE 6.9 mph - 0.06 in Rain Light Rain
10:53 AM 57.2 °F 53.6 °F 88% 29.73 in 0.5 mi Calm Calm - 0.06 in   Haze
11:13 AM 57.2 °F 53.6 °F 88% 29.76 in 0.2 mi Calm Calm - N/A   Haze
11:34 AM 59.0 °F 53.6 °F 82% 29.73 in 0.2 mi East 5.8 mph - N/A   Haze
11:53 AM 59.0 °F 53.6 °F 82% 29.73 in 0.2 mi ENE 3.5 mph - N/A   Overcast
12:13 PM 59.0 °F 53.6 °F 82% 29.74 in 0.2 mi NE 4.6 mph - N/A Rain Light Rain
12:34 PM 60.8 °F 55.4 °F 82% 29.74 in 0.2 mi East 3.5 mph - N/A   Haze
12:53 PM 60.8 °F 55.4 °F 82% 29.74 in 0.2 mi ENE 3.5 mph - N/A   Haze
1:13 PM 60.8 °F 55.4 °F 82% 29.73 in 0.2 mi ENE 5.8 mph - N/A   Haze
1:34 PM 60.8 °F 55.4 °F 82% 29.73 in 0.8 mi NNE 4.6 mph - N/A Rain Light Rain
1:53 PM 62.6 °F 57.2 °F 82% 29.72 in 1.8 mi NE 5.8 mph - N/A Rain Light Rain
2:13 PM 62.6 °F 57.2 °F 82% 29.71 in 1.2 mi NE 6.9 mph - 0.01 in   Haze
2:34 PM 62.6 °F 57.2 °F 82% 29.70 in 0.8 mi ENE 6.9 mph - 0.01 in Thunderstorm Haze
2:53 PM 62.6 °F 57.2 °F 82% 29.69 in 0.8 mi ENE 10.4 mph - 0.01 in   Haze
3:13 PM 62.6 °F 57.2 °F 82% 29.68 in 0.8 mi East 9.2 mph - N/A Rain Light Rain
3:33 PM 62.6 °F 57.2 °F 82% 29.68 in 1.8 mi ENE 5.8 mph - N/A   Haze
3:53 PM 62.6 °F 57.2 °F 82% 29.67 in 0.5 mi East 8.1 mph - N/A   Haze
4:13 PM 62.6 °F 57.2 °F 82% 29.67 in 0.8 mi ENE 6.9 mph - N/A   Haze
4:33 PM 62.6 °F 57.2 °F 82% 29.67 in 0.2 mi ENE 5.8 mph - N/A   Drizzle
4:53 PM 60.8 °F 55.4 °F 82% 29.68 in 0.8 mi ENE 5.8 mph - N/A   Drizzle
5:13 PM 60.8 °F 55.4 °F 82% 29.68 in 1.0 mi NNE 3.5 mph - N/A   Drizzle
5:33 PM 60.8 °F 55.4 °F 82% 29.69 in 1.5 mi Calm Calm - 0.01 in Thunderstorm Drizzle
5:54 PM 62.6 °F 57.2 °F 82% 29.69 in 1.5 mi NE 3.5 mph - 0.01 in   Drizzle
6:13 PM 62.6 °F 57.2 °F 82% 29.69 in 1.8 mi NE 3.5 mph - N/A Rain Light Rain
6:33 PM 62.6 °F 57.2 °F 82% 29.69 in 2.5 mi NE 3.5 mph - N/A   Haze
6:54 PM 62.6 °F 57.2 °F 82% 29.69 in 2.5 mi Calm Calm - N/A   Haze
7:13 PM 62.6 °F 57.2 °F 82% 29.69 in 4.0 mi ENE 4.6 mph - N/A   Haze
7:33 PM 62.6 °F 57.2 °F 82% 29.70 in 5.0 mi NE 4.6 mph - N/A   Haze
7:54 PM 62.6 °F 57.2 °F 82% 29.70 in 5.0 mi Calm Calm - N/A   Haze
8:13 PM 62.6 °F 57.2 °F 82% 29.70 in 5.0 mi Calm Calm - N/A   Haze
8:33 PM 62.6 °F 57.2 °F 82% 29.71 in 4.0 mi Calm Calm - N/A   Haze
8:54 PM 62.6 °F 57.2 °F 82% 29.71 in 3.0 mi NNE 3.5 mph - N/A   Drizzle
9:13 PM 62.6 °F 57.2 °F 82% 29.70 in 4.0 mi Calm Calm - N/A   Haze
9:33 PM 62.6 °F 57.2 °F 82% 29.69 in 3.0 mi North 4.6 mph - N/A   Haze
9:53 PM 62.6 °F 57.2 °F 82% 29.69 in 5.0 mi Calm Calm - N/A   Haze
10:13 PM 62.6 °F 57.2 °F 82% 29.70 in 7.0 mi Calm Calm - N/A   Mostly Cloudy
10:34 PM 62.6 °F 57.2 °F 82% 29.70 in 4.0 mi SSW 3.5 mph - N/A   Haze
10:53 PM 62.6 °F 57.2 °F 82% 29.70 in 2.0 mi SSW 5.8 mph - N/A   Haze
11:13 PM 62.6 °F 57.2 °F 82% 29.71 in 0.5 mi SSW 3.5 mph - N/A   Haze
11:34 PM 60.8 °F 55.4 °F 82% 29.70 in 0.2 mi Calm Calm - N/A   Haze
11:53 PM 60.8 °F 55.4 °F 82% 29.71 in 0.2 mi Calm Calm - N/A   Haze